User: anonymous   Login
Location: ČR
(50.0000°N, 15.0000°E)
Time: 07:31:34
(UTC+00:00)
Language:

Vanguard 2 Rocket - Orbit

View from above orbital plane
View from above orbital plane
View from above satellite
View from above satellite

Ground track
Ground track

The orbit data is extracted from the following two-line orbital elements,

1 00012U 59001B   21293.70031550  .00000300  00000-0  17802-3 0  9990
2 00012  32.8976  75.5457 1663356 133.6428 241.4696 11.44404349336143
Epoch (UTC): 20 October 2021 16:48:27
Eccentricity: 0.1663356
inclination: 32.8976°
perigee height: 556 km
apogee height: 3323 km
right ascension of ascending node: 75.5457°
argument of perigee: 133.6428°
revolutions per day: 11.44404349
mean anomaly at epoch: 241.4696°
orbit number at epoch: 33614

The dashed part of the orbit path shows where the satellite is in the earth's shadow,  

DLR